FW8291 Weather Reports


time (UTC)temp
C
wind
direction
speed
KPH
gust
KPH
rain 1hr
cm
rain 24hr
cm
rain mn
cm
humidity
%
barometer
mb
20260506084608 13 166 0.0 0.0 0.00 0.05 0.00 89 1017.5
20260506084329 13 166 0.0 0.0 0.00 0.08 0.00 89 1017.5
20260506083608 13 166 0.0 0.0 0.00 0.10 0.00 89 1017.6
20260506083109 13 166 0.0 0.0 0.00 0.10 0.00 89 1017.6
20260506082608 13 166 0.0 0.0 0.00 0.13 0.00 89 1017.6
20260506082110 13 166 0.0 0.0 0.00 0.13 0.00 89 1017.7
20260506081607 13 166 0.0 0.0 0.00 0.13 0.00 89 1017.7
20260506081109 13 166 0.0 0.0 0.00 0.15 0.00 89 1017.7
20260506080608 13 166 0.0 0.0 0.00 0.15 0.00 89 1017.7
20260506080108 13 166 0.0 0.0 0.00 0.15 0.00 89 1017.7
20260506073108 13 166 0.0 0.0 0.00 0.20 0.00 89 1017.4
20260506072605 13 166 0.0 0.0 0.00 0.20 0.00 89 1017.3
20260506072337 13 168 0.0 0.0 0.00 0.20 0.00 89 1017.3
20260506071606 13 168 0.0 0.0 0.00 0.20 0.00 89 1017.2
20260506071107 13 168 0.0 0.0 0.00 0.20 0.00 89 1017.2
20260506070606 13 168 0.0 0.0 0.00 0.20 0.00 89 1017.2
20260506070108 13 168 0.0 0.0 0.00 0.20 0.00 89 1017.2
20260506062106 13 164 0.0 0.0 0.00 0.23 0.20 89 1017.1
20260506061605 13 164 0.0 0.0 0.00 0.23 0.20 89 1017.0
20260506061107 13 164 0.0 0.0 0.00 0.23 0.20 89 1016.9
20260506060605 13 164 0.0 0.0 0.00 0.23 0.20 89 1016.9
20260506060106 13 164 0.0 0.0 0.00 0.23 0.20 89 1016.8
20260506051105 13 313 0.0 0.0 0.00 0.23 0.20 89 1016.6
20260506050603 13 340 0.0 0.0 0.00 0.23 0.20 89 1016.6
20260506050104 13 340 0.0 0.0 0.00 0.23 0.20 89 1016.6
20260506045105 13 340 0.0 0.0 0.00 0.23 0.20 89 1016.5
20260506044603 13 340 0.0 0.0 0.00 0.23 0.20 89 1016.4
20260506044102 13 340 0.0 0.0 0.00 0.23 0.20 89 1016.5
20260506043602 13 340 0.0 0.0 0.00 0.23 0.20 89 1016.4
20260506043321 13 340 0.0 0.0 0.00 0.23 0.20 89 1016.3
20260506042603 13 340 0.0 0.0 0.00 0.23 0.20 89 1016.2
20260506042328 13 340 0.0 0.0 0.00 0.23 0.20 89 1016.2
20260506041822 13 340 0.0 0.0 0.00 0.23 0.20 89 1016.1
20260506041104 13 340 0.0 0.0 0.00 0.23 0.20 89 1016.0
20260506040823 13 340 0.0 0.0 0.00 0.23 0.20 89 1016.0
20260506035600 13 340 0.0 0.0 0.00 0.23 0.20 89 1015.8
20260506035102 13 340 0.0 0.0 0.00 0.23 0.20 89 1015.9
20260506034825 13 340 0.0 0.0 0.00 0.23 0.20 89 1015.8
20260506034103 13 340 0.0 0.0 0.00 0.23 0.20 89 1015.7
20260506033601 13 340 0.0 0.0 0.00 0.23 0.20 88 1015.6
20260506033322 13 340 0.0 0.0 0.00 0.23 0.20 88 1015.6
20260506032601 13 340 0.0 0.0 0.00 0.23 0.20 88 1015.6
20260506032102 13 340 0.0 0.0 0.00 0.23 0.20 88 1015.5
20260506031820 13 340 0.0 0.0 0.00 0.23 0.20 88 1015.5
20260506031329 13 340 0.0 0.0 0.00 0.23 0.20 88 1015.4
20260506030601 13 340 0.0 0.0 0.00 0.23 0.20 88 1015.3
20260506025600 13 340 0.0 1.6 0.00 0.23 0.20 87 1015.2
20260506025323 13 340 0.0 1.6 0.00 0.23 0.20 87 1015.2
20260506024600 13 340 0.0 1.6 0.00 0.23 0.20 87 1015.2
20260506024102 13 324 0.0 1.6 0.00 0.23 0.20 87 1015.1
20260506023600 13 326 0.0 1.6 0.00 0.23 0.20 87 1015.1
20260506023101 13 358 0.0 1.6 0.00 0.23 0.20 87 1014.9
20260506022558 13 336 0.0 1.6 0.00 0.23 0.20 86 1015.0
20260506022101 13 336 0.0 1.6 0.00 0.23 0.20 86 1014.9
20260506021600 14 344 0.0 1.6 0.00 0.23 0.20 86 1014.9
20260506021101 14 344 0.0 1.6 0.00 0.23 0.20 86 1015.0
20260506020559 14 344 0.0 1.6 0.00 0.23 0.20 86 1015.0
20260506015559 14 348 0.0 4.8 0.00 0.23 0.20 85 1015.0
20260506015100 14 337 0.0 3.2 0.00 0.23 0.20 85 1015.0
20260506014557 14 354 0.0 4.8 0.00 0.23 0.20 85 1015.0
20260506014101 14 351 0.0 4.8 0.00 0.23 0.20 84 1015.0
20260506013558 14 343 0.0 3.2 0.00 0.23 0.20 84 1015.1
20260506013320 15 329 0.0 1.6 0.00 0.23 0.20 84 1015.0
20260506012559 15 341 0.0 3.2 0.00 0.23 0.20 84 1014.9
20260506012328 15 341 0.0 4.8 0.00 0.23 0.20 83 1014.9
20260506011558 15 147 0.0 4.8 0.00 0.23 0.20 83 1015.0
20260506011100 15 358 0.0 1.6 0.00 0.23 0.20 83 1014.9
20260506010558 15 269 0.0 1.6 0.00 0.23 0.20 83 1014.8
20260506010521 15 0 0.0 3.2 0.00 0.23 0.20 83 1014.8
20260506010144 15 326 0.0 3.2 0.00 0.23 0.20 83 1014.8
20260506005058 15 302 0.0 3.2 0.00 0.23 0.20 83 1014.9
20260506004558 15 354 1.6 3.2 0.00 0.23 0.20 82 1014.8
20260506004059 15 3 0.0 3.2 0.00 0.23 0.20 82 1014.7
20260506003557 15 151 0.0 4.8 0.00 0.23 0.20 82 1014.7
20260506003318 15 37 1.6 4.8 0.00 0.23 0.20 82 1014.7
20260506002557 15 330 0.0 3.2 0.00 0.23 0.20 82 1014.7
20260506002056 15 286 0.0 3.2 0.00 0.23 0.20 82 1014.7
20260506001555 15 324 1.6 6.4 0.00 0.23 0.20 81 1014.6
20260506001320 15 348 1.6 6.4 0.00 0.23 0.20 81 1014.5
20260506000556 15 343 1.6 3.2 0.00 0.23 0.20 81 1014.5
20260506000058 15 343 0.0 3.2 0.00 0.23 0.20 80 1014.5
20260505235822 15 303 0.0 1.6 0.00 0.23 0.20 80 1014.6
20260505235057 15 292 0.0 1.6 0.00 0.23 0.20 79 1014.7
20260505234556 16 337 0.0 3.2 0.00 0.23 0.20 79 1014.7
20260505234058 16 300 0.0 4.8 0.00 0.23 0.20 78 1014.7
20260505233556 16 343 1.6 4.8 0.00 0.23 0.20 78 1014.7
20260505233058 16 336 1.6 3.2 0.00 0.23 0.20 77 1014.8
20260505232555 16 333 0.0 1.6 0.00 0.23 0.20 78 1014.7
20260505232057 16 357 1.6 1.6 0.00 0.23 0.20 77 1014.8
20260505231556 16 0 0.0 1.6 0.00 0.23 0.20 78 1014.8
20260505231058 16 20 0.0 4.8 0.00 0.23 0.20 77 1014.8
20260505230555 16 343 3.2 4.8 0.00 0.23 0.20 76 1014.7
20260505230056 16 329 1.6 3.2 0.00 0.23 0.20 77 1014.8
20260505225822 16 264 0.0 3.2 0.00 0.23 0.20 77 1014.6
20260505225054 16 330 1.6 4.8 0.00 0.23 0.20 77 1014.7
20260505224553 16 329 1.6 4.8 0.00 0.23 0.20 78 1014.7
20260505223554 16 320 1.6 4.8 0.00 0.23 0.20 79 1014.6
20260505223057 16 348 1.6 4.8 0.00 0.23 0.20 77 1014.7
20260505222554 16 336 1.6 4.8 0.00 0.23 0.20 77 1014.7
20260505222055 16 327 1.6 4.8 0.00 0.23 0.20 77 1014.7
20260505221554 16 312 1.6 6.4 0.00 0.23 0.20 76 1014.7
20260505221055 16 320 1.6 6.4 0.00 0.23 0.20 77 1014.7
20260505220555 16 351 1.6 6.4 0.00 0.23 0.20 76 1014.7
20260505220055 16 347 1.6 6.4 0.00 0.23 0.20 77 1014.7
20260505215555 16 321 1.6 4.8 0.00 0.23 0.20 76 1014.8
20260505215533 16 281 1.6 6.4 0.00 0.23 0.20 77 1014.9
20260505214554 16 0 1.6 6.4 0.00 0.23 0.20 76 1014.9
20260505214055 16 350 3.2 4.8 0.00 0.23 0.20 76 1014.8
20260505213553 16 281 1.6 4.8 0.00 0.23 0.20 76 1014.9
20260505213054 17 334 1.6 4.8 0.00 0.23 0.20 77 1015.0
20260505212553 17 306 1.6 4.8 0.00 0.23 0.20 77 1015.0
20260505212053 17 326 1.6 4.8 0.00 0.23 0.20 76 1015.0
20260505211553 17 314 1.6 4.8 0.00 0.23 0.20 77 1015.0
20260505211054 17 323 1.6 4.8 0.00 0.23 0.20 75 1015.0
20260505210552 17 272 0.0 4.8 0.00 0.23 0.20 77 1015.0
20260505210053 17 320 1.6 4.8 0.00 0.23 0.20 76 1015.0
20260505205552 17 319 1.6 4.8 0.00 0.23 0.20 76 1014.9
20260505205055 17 345 1.6 4.8 0.00 0.23 0.20 76 1014.8
20260505204550 17 21 1.6 4.8 0.00 0.23 0.20 74 1014.8
20260505204051 17 348 1.6 4.8 0.00 0.23 0.20 76 1014.9
20260505203550 17 320 0.0 4.8 0.00 0.23 0.20 75 1014.9
20260505203053 16 144 0.0 4.8 0.00 0.23 0.20 76 1014.8
20260505202551 16 340 3.2 4.8 0.00 0.23 0.20 75 1015.0
20260505202055 16 214 1.6 4.8 0.00 0.23 0.20 76 1014.9
20260505201551 16 344 1.6 4.8 0.00 0.23 0.20 76 1015.0
20260505201053 16 358 1.6 3.2 0.00 0.23 0.20 74 1015.0
20260505200551 16 286 1.6 3.2 0.00 0.23 0.20 76 1014.9
20260505200319 16 258 0.0 3.2 0.00 0.23 0.20 78 1015.0
20260505195551 16 279 0.0 3.2 0.00 0.23 0.20 80 1015.1
20260505195052 16 282 0.0 4.8 0.00 0.23 0.20 79 1015.1
20260505194551 16 271 0.0 4.8 0.00 0.23 0.20 81 1015.1
20260505194051 16 341 1.6 4.8 0.00 0.23 0.20 81 1015.1
20260505193550 16 214 0.0 3.2 0.00 0.23 0.20 83 1015.1
20260505193050 16 348 0.0 4.8 0.00 0.23 0.20 85 1015.2
20260505192550 15 274 0.0 4.8 0.00 0.23 0.20 85 1015.2
20260505192050 15 227 0.0 1.6 0.00 0.23 0.20 87 1015.1
20260505191550 15 340 0.0 1.6 0.00 0.23 0.20 88 1015.2
20260505191051 15 333 0.0 1.6 0.00 0.23 0.20 88 1015.1
20260505190549 14 316 0.0 1.6 0.00 0.23 0.20 89 1015.1
20260505190051 14 247 0.0 3.2 0.00 0.23 0.20 88 1015.0
20260505185811 14 317 0.0 4.8 0.00 0.23 0.20 89 1014.9
20260505185051 14 331 0.0 4.8 0.00 0.23 0.20 88 1015.0
20260505184550 14 330 0.0 3.2 0.00 0.23 0.20 88 1015.1
20260505184051 14 4 0.0 3.2 0.00 0.23 0.20 89 1015.1
20260505183809 14 345 1.6 3.2 0.00 0.23 0.20 89 1015.1
20260505183051 14 331 0.0 1.6 0.00 0.23 0.20 90 1015.1
20260505182549 14 276 0.0 1.6 0.00 0.23 0.20 90 1015.1
20260505182051 13 278 0.0 1.6 0.00 0.23 0.20 90 1014.9
20260505181549 13 265 0.0 3.2 0.00 0.23 0.20 91 1014.9
20260505181050 13 264 0.0 3.2 0.00 0.23 0.20 91 1014.7
20260505180549 13 357 1.6 3.2 0.00 0.23 0.20 91 1014.8
20260505180049 13 330 0.0 0.0 0.00 0.23 0.20 90 1014.7
20260505175548 13 220 0.0 0.0 0.00 0.23 0.20 90 1014.6
20260505175049 13 320 0.0 1.6 0.00 0.23 0.20 90 1014.7
20260505174548 13 330 0.0 4.8 0.00 0.23 0.20 90 1014.6
20260505174049 13 243 0.0 4.8 0.00 0.23 0.20 90 1014.7
20260505173547 13 355 0.0 3.2 0.00 0.23 0.20 90 1014.6
20260505173048 13 259 0.0 1.6 0.00 0.23 0.20 90 1014.7
20260505172547 13 1 0.0 1.6 0.00 0.23 0.20 90 1014.6
20260505172048 12 357 0.0 0.0 0.00 0.23 0.20 90 1014.6
20260505171547 12 347 0.0 1.6 0.00 0.23 0.20 90 1014.6
20260505171048 12 323 0.0 1.6 0.00 0.23 0.20 90 1014.5
20260505170547 12 289 0.0 1.6 0.00 0.23 0.20 90 1014.5
20260505170048 12 350 0.0 1.6 0.00 0.23 0.20 90 1014.4
20260505165547 12 276 0.0 0.0 0.00 0.23 0.20 90 1014.4
20260505165048 12 265 0.0 3.2 0.03 0.23 0.20 90 1014.4
20260505164546 12 265 0.0 3.2 0.03 0.23 0.20 90 1014.5
20260505164048 12 254 0.0 0.0 0.03 0.23 0.20 89 1014.4
20260505163814 12 254 0.0 1.6 0.03 0.23 0.20 89 1014.4
20260505163047 12 285 0.0 1.6 0.03 0.23 0.20 89 1014.4
20260505162546 12 274 0.0 1.6 0.03 0.23 0.20 89 1014.4
20260505162048 12 354 0.0 0.0 0.03 0.23 0.20 90 1014.4
20260505161545 12 354 0.0 0.0 0.03 0.23 0.20 89 1014.3
20260505161047 12 354 0.0 0.0 0.03 0.23 0.20 89 1014.2
20260505160545 12 288 0.0 0.0 0.03 0.23 0.20 89 1014.2
20260505153048 11 331 0.0 1.6 0.00 0.20 0.18 90 1014.0
20260505152544 11 66 0.0 1.6 0.00 0.20 0.18 90 1014.0
20260505152046 11 68 0.0 0.0 0.00 0.20 0.18 90 1014.0
20260505151544 11 66 0.0 1.6 0.00 0.20 0.18 90 1013.9
20260505151046 11 66 0.0 1.6 0.00 0.20 0.18 90 1013.9
20260505150544 11 117 0.0 0.0 0.00 0.20 0.18 89 1013.8
20260505150532 11 117 0.0 0.0 0.00 0.20 0.18 89 1013.7
20260505140306 -17 0.0 0.0 0.00 0.20 0.18 1013.5
20260505130240 -17 0.0 0.0 0.00 0.20 0.18 1013.1
20260505125022 -17 0.0 0.0 0.00 0.20 0.18 1013.3
20260505124519 -17 0.0 0.0 0.00 0.20 0.18 1013.4
20260505124018 -17 0.0 0.0 0.00 0.20 0.18 1013.3
20260505123516 10 118 0.0 0.0 0.00 0.20 0.18 90 1013.3
20260505123017 10 118 0.0 0.0 0.00 0.20 0.18 90 1013.4
20260505122516 10 118 0.0 1.6 0.00 0.20 0.18 90 1013.3
20260505121736 10 118 0.0 0.0 0.00 0.20 0.18 90 1013.2
20260505121016 10 118 0.0 0.0 0.00 0.20 0.18 90 1013.1
20260505120515 10 118 0.0 0.0 0.00 0.20 0.18 90 1013.1
20260505120017 10 118 0.0 0.0 0.00 0.20 0.18 90 1013.3
20260505115513 10 118 0.0 0.0 0.00 0.20 0.18 90 1013.3
20260505115238 10 118 0.0 0.0 0.00 0.20 0.18 90 1013.3
20260505114515 10 118 0.0 0.0 0.00 0.20 0.18 90 1013.4
20260505114016 10 118 0.0 0.0 0.00 0.20 0.18 90 1013.5
20260505113514 10 118 0.0 0.0 0.00 0.20 0.18 90 1013.6
20260505113014 10 118 0.0 0.0 0.00 0.20 0.18 90 1013.6
20260505112514 10 118 0.0 0.0 0.00 0.20 0.18 90 1013.4
20260505112015 10 118 0.0 0.0 0.00 0.20 0.18 90 1013.4
20260505111958 10 118 0.0 0.0 0.00 0.20 0.18 90 1013.4
20260505111239 10 118 0.0 0.0 0.00 0.20 0.18 90 1013.5
20260505110513 10 118 0.0 0.0 0.00 0.20 0.18 90 1013.4
20260505102014 10 118 0.0 0.0 0.03 0.20 0.18 90 1013.4
20260505101513 10 118 0.0 0.0 0.03 0.20 0.18 90 1013.5
20260505101013 10 118 0.0 0.0 0.03 0.20 0.18 90 1013.6
20260505100512 10 118 0.0 0.0 0.03 0.20 0.18 90 1013.4
20260505100014 10 118 0.0 0.0 0.03 0.20 0.18 90 1013.5
20260505095513 10 118 0.0 0.0 0.05 0.20 0.18 90 1013.7
20260505095234 10 118 0.0 1.6 0.03 0.18 0.15 90 1013.6
20260505094734 10 118 0.0 1.6 0.03 0.18 0.15 90 1013.5
20260505094014 10 147 0.0 0.0 0.05 0.18 0.15 90 1013.6
20260505093512 10 147 0.0 0.0 0.05 0.18 0.15 90 1013.7
20260505093012 10 147 0.0 0.0 0.05 0.18 0.15 90 1013.8
20260505092512 10 147 0.0 0.0 0.08 0.18 0.15 90 1013.8
20260505092233 10 147 0.0 0.0 0.08 0.18 0.15 90 1013.9
20260505091511 10 147 0.0 0.0 0.08 0.18 0.15 90 1014.0
20260505091013 10 147 0.0 0.0 0.10 0.18 0.15 90 1014.0
20260505090511 10 147 0.0 0.0 0.10 0.18 0.15 90 1014.0
20260505090012 10 147 0.0 0.0 0.13 0.18 0.15 90 1014.1
20260505085510 10 145 0.0 0.0 0.10 0.15 0.15 90 1014.0
20260505085012 10 147 0.0 0.0 0.10 0.15 0.15 90 1014.0